Home > Weather > Tsu > Past weeks

Flag for Japan Weather for the Past 2 Weeks in Tsu, Japan

Now
38 °F

Chilly.


Feels Like: 32 °F
Forecast: 32 / 54 °F
Wind: 9 mph from West

Location: Tsu

Current Time: Feb 11, 2016 at 5:51:39 AM

Latest Report: Feb 11, 2016 at 5:00 AM


Visibility: N/A

Pressure: 30.37 "Hg

Humidity: 51%

Dew point: 21 °F

Location of TsuLocation

Historic Weather in Tsu — Graph

°F

Tsu Temperature Yesterday

Maximum temperature yesterday: 46 °F (at 4:00 PM)
Minimum temperature yesterday: 38 °F (at 10:00 PM)
Average temperature yesterday: 41 °F

High & Low Weather Summary for the Past Weeks

 TemperatureHumidityPressure
High58 °F (Jan 28, 2:00 PM)95% (Jan 29, 8:00 PM)30.42 "Hg (Jan 29, 8:00 PM)
Low31 °F (Feb 8, 6:00 AM)27% (Feb 5, 2:00 PM)29.87 "Hg (Feb 9, 1:00 PM)
Average44 °F57%30.15 "Hg
* Reported Jan 27 4:00 AM — Feb 11 4:00 AM, Tsu, Weather by CustomWeather, © 2016

Note: Actual official high and low records may vary slightly from our data, if they occured in-between our weather recording intervals... More about our weather records

Advertising

Tsu Weather History for the Previous 24 Hours

 ConditionsComfort  
Time TempWeatherWind HumidityBarometerVisibility
4:00 AM
Thu, Feb 11
38 °FChilly.8 mph51%30.37 "HgN/A
3:00 AM38 °FChilly.7 mph54%30.37 "HgN/A
2:00 AM37 °FChilly.6 mph59%30.39 "HgN/A
1:00 AM38 °FChilly.6 mph57%30.38 "HgN/A
12:00 AM39 °FChilly.5 mph50%30.38 "HgN/A
11:00 PM
Wed, Feb 10
39 °FChilly.10 mph53%30.38 "HgN/A
10:00 PM38 °FChilly.6 mph55%30.37 "HgN/A
9:00 PM40 °FPassing clouds.8 mph51%30.36 "Hg19 mi
8:00 PM41 °FQuite cool.9 mph51%30.35 "HgN/A
7:00 PM41 °FQuite cool.5 mph50%30.34 "HgN/A
6:00 PM42 °FQuite cool.9 mph47%30.32 "HgN/A
5:00 PM44 °FQuite cool.14 mph42%30.30 "HgN/A
4:00 PM46 °FCool.14 mph41%30.27 "HgN/A
3:00 PM45 °FSprinkles. Overcast.15 mph43%30.26 "Hg22 mi
2:00 PM44 °FQuite cool.13 mph52%30.25 "HgN/A
1:00 PM45 °FCool.14 mph40%30.24 "HgN/A
12:00 PM42 °FQuite cool.12 mph63%30.26 "HgN/A
8:00 AM39 °FChilly.5 mph72%30.22 "HgN/A
6:00 AM39 °FChilly.6 mph65%30.19 "HgN/A
5:00 AM39 °FChilly.6 mph63%30.17 "HgN/A
Weather by CustomWeather, © 2016

See weather overviewHow to use our weather pages